Wind_Speed
8 8 8 9 9 10 11 11 12 12 12 12 13 13 13 13 14 14 14 14 15 15 16 16 17 17 17 18 18 19 19 20 21 22 22 22 23 23
9 10 10 10 11 12 12 13 13 13 13 13 14 15 15 15 15 16 16 16 16 17 18 18 19 19 20 20 21 21 22 23 23 24 24 25 25 25
11 12 12 13 13 14 14 14 15 15 15 15 15 16 16 16 17 17 17 18 19 19 20 20 20 21 22 22 23 23 24 24 24 25 25 26 26 27
13 14 14 14 15 15 16 16 16 17 17 17 17 17 17 18 18 19 19 20 21 21 22 22 23 23 24 25 25 26 26 26 27 27 27 27 28 28
15 16 16 16 17 17 17 18 18 18 18 18 19 19 19 20 20 21 21 22 23 23 24 25 25 26 27 27 28 28 28 29 29 29 29 29 29 30
17 17 17 18 19 19 19 19 19 20 20 20 20 21 22 23 23 23 24 25 26 26 27 27 28 29 29 29 29 30 30 31 31 31 31 31 32 32
18 19 19 20 20 21 21 21 21 22 22 23 24 24 24 25 26 27 27 28 28 29 30 30 31 31 32 32 33 33 33 33 33 34 34 34 34 35
20 20 21 22 22 22 22 23 23 24 25 26 26 26 27 28 29 30 31 31 31 32 32 33 34 34 34 34 35 36 36 35 36 36 36 37 37 37
21 22 23 23 23 24 25 25 26 26 27 28 29 29 30 30 31 32 33 34 34 35 36 36 36 36 37 37 37 38 38 38 39 39 39 39 40 40
24 24 25 25 25 25 26 26 28 29 29 30 31 31 33 34 34 35 36 37 37 38 39 39 38 38 38 39 39 39 40 40 40 41 41 42 43 43
25 26 27 27 28 28 28 29 30 31 32 32 33 34 35 36 37 38 39 39 40 40 42 42 41 41 40 41 41 42 42 43 43 43 44 44 45 45
27 28 29 30 30 30 30 31 32 33 34 35 35 36 37 37 39 41 42 43 43 42 43 44 43 43 43 43 44 44 45 45 45 45 46 46 47 47
28 29 30 31 32 32 33 34 35 36 37 37 38 39 40 41 43 44 45 46 45 45 44 45 45 46 46 45 45 47 47 47 47 46 46 46 46 47
28 29 30 31 32 34 35 36 38 38 40 41 42 42 43 44 45 46 46 46 46 46 46 47 47 48 49 49 48 48 48 48 47 47 46 45 45 46
30 31 32 33 34 35 37 38 40 41 42 42 42 43 44 45 46 47 47 47 47 48 48 48 49 50 50 50 49 48 48 47 46 46 45 45 45 44
32 33 34 35 36 37 38 39 41 42 43 44 44 45 46 47 47 48 49 49 49 48 49 50 51 51 50 49 48 47 47 46 45 45 45 44 44 44
34 34 36 37 38 39 40 41 42 44 45 45 46 47 48 48 48 49 50 50 50 50 49 50 50 49 49 48 47 47 46 45 44 44 44 44 43 44
34 36 38 39 40 41 41 42 42 43 44 45 46 47 48 49 50 50 51 51 51 50 50 49 49 48 46 46 46 46 45 44 44 44 44 44 44 44
37 37 38 40 41 42 42 43 43 44 45 46 47 48 49 49 50 50 51 51 50 49 49 49 48 48 47 45 44 45 44 43 44 44 44 45 44 44
38 39 41 42 43 43 44 44 45 46 47 47 47 48 49 50 51 51 52 51 50 49 49 48 48 47 47 45 43 42 43 44 44 44 44 44 44 43
40 42 43 43 44 45 45 46 46 47 48 49 49 50 50 51 51 51 51 50 49 49 49 49 47 47 46 45 44 42 42 43 44 44 44 43 42 41
43 44 44 45 46 46 46 46 47 48 49 49 49 49 50 50 50 50 50 50 50 50 49 47 46 44 43 43 42 41 41 41 41 41 40 40 40 39
43 44 45 45 46 47 47 47 47 48 48 48 48 48 48 48 48 48 48 48 48 46 45 44 43 42 41 41 40 40 39 39 38 38 36 36 35 35
Wind_Direction
271 279 288 294 300 305 308 310 311 313 313 312 311 312 312 311 310 311 310 310 309 308 307 306 304 302 299 298 296 293 291 289 287 285 283 281 280 279
270 276 282 287 292 298 302 305 307 308 309 310 308 307 308 309 307 306 306 305 305 305 304 303 302 301 300 298 296 294 292 289 288 286 284 281 280 278
270 275 280 284 290 294 297 300 301 303 304 306 306 306 305 305 305 305 304 304 304 304 303 303 303 302 300 299 298 296 293 291 289 287 285 283 281 279
272 276 280 284 288 292 294 296 297 300 301 302 303 304 304 304 303 303 303 303 303 303 302 302 303 302 300 299 298 297 295 292 289 287 285 284 282 280
276 278 280 282 286 289 291 293 295 298 300 300 301 302 302 302 303 303 302 301 301 301 300 300 299 299 299 298 297 296 295 293 290 287 285 284 282 280
279 280 280 282 285 288 290 292 294 296 297 298 298 300 301 301 301 301 300 300 300 299 298 298 298 297 296 295 295 294 294 292 290 288 286 284 282 281
281 282 284 285 287 288 289 290 292 294 295 296 297 298 300 301 300 299 298 298 299 298 298 298 297 297 296 294 294 293 292 291 289 288 286 284 283 281
283 285 286 287 287 288 288 289 291 293 294 296 297 297 298 299 298 298 297 297 297 297 297 297 297 296 295 294 293 292 292 291 289 287 285 284 282 282
284 286 286 286 287 288 289 290 290 292 293 295 295 295 296 297 298 297 297 297 297 297 296 297 296 296 295 295 293 291 290 289 289 287 286 284 281 280
283 285 286 287 286 288 289 290 291 292 293 294 296 295 295 295 296 296 296 296 296 296 296 297 296 295 294 294 293 291 290 289 288 287 285 284 283 281
283 285 287 288 287 288 290 290 291 291 292 294 294 295 295 296 296 296 296 296 296 295 295 296 295 295 294 294 292 291 290 290 289 288 286 284 283 282
283 284 286 286 287 288 290 291 290 290 291 292 293 293 295 295 296 296 296 297 297 296 296 295 295 294 293 293 292 292 291 290 289 288 286 284 283 282
283 285 286 286 287 288 289 290 291 290 291 292 292 293 293 294 295 295 296 298 298 297 296 295 295 294 293 292 292 291 291 290 289 288 286 284 283 282
285 286 287 288 287 288 290 290 291 291 292 292 293 293 294 295 294 294 295 296 296 295 295 295 295 294 294 293 293 291 291 290 289 288 287 286 284 283
287 288 288 288 289 289 289 290 290 292 293 293 294 294 295 296 296 296 295 295 295 295 294 293 295 295 295 295 294 293 291 290 289 288 287 287 286 284
287 288 289 290 290 290 291 291 291 292 293 293 294 295 295 295 295 296 295 295 295 295 295 294 295 295 294 294 294 294 292 291 289 289 289 288 287 285
287 288 290 291 291 291 292 293 293 294 294 294 294 295 295 296 296 296 296 296 296 296 297 297 296 296 295 294 294 293 291 290 289 289 288 288 287 286
290 291 292 292 293 293 294 294 294 295 296 297 296 296 297 297 297 297 298 298 298 297 297 297 296 295 295 295 294 292 290 289 289 288 287 287 286 285
291 291 292 293 293 293 294 294 295 295 297 297 297 297 297 298 298 298 298 298 298 297 296 296 296 295 294 294 293 292 291 290 289 289 289 289 288 286
292 293 294 293 294 294 295 296 296 296 297 297 297 297 297 297 298 298 299 298 297 297 296 296 296 295 294 294 293 292 291 291 290 289 289 289 288 288
292 293 294 294 295 295 295 296 296 296 297 297 297 297 297 297 298 298 298 297 296 296 296 296 295 294 293 293 293 291 291 291 291 291 291 290 289 288
293 293 294 294 295 295 296 296 296 296 297 297 297 297 297 298 298 298 298 297 297 296 296 295 295 294 292 291 291 291 292 292 292 293 293 292 292 290
294 294 295 296 296 296 297 297 297 297 297 297 297 298 298 298 298 299 299 298 297 296 295 295 295 294 293 292 292 293 293 293 292 293 293 294 294 293
Height
5879 5879 5879 5879 5879 5878 5877 5877 5876 5875 5875 5874 5872 5871 5870 5869 5868 5867 5865 5864 5863 5862 5860 5859 5858 5857 5855 5854 5853 5852 5851 5850 5849 5849 5848 5847 5847 5846
5877 5877 5877 5877 5876 5876 5875 5874 5873 5873 5872 5871 5870 5868 5867 5866 5864 5863 5862 5861 5859 5858 5856 5855 5854 5852 5851 5849 5848 5846 5845 5844 5843 5842 5841 5841 5840 5839
5874 5874 5874 5874 5874 5873 5872 5871 5870 5869 5868 5868 5866 5865 5863 5862 5861 5859 5858 5857 5855 5854 5852 5850 5849 5847 5845 5844 5842 5840 5839 5837 5836 5835 5834 5833 5832 5832
5871 5871 5871 5871 5870 5870 5869 5868 5867 5866 5865 5864 5863 5861 5859 5858 5856 5855 5854 5852 5851 5849 5847 5846 5844 5842 5840 5838 5836 5834 5832 5830 5829 5828 5826 5825 5824 5823
5867 5868 5867 5867 5867 5866 5865 5864 5863 5862 5861 5860 5858 5857 5855 5854 5852 5850 5849 5847 5845 5843 5841 5839 5837 5835 5833 5831 5829 5827 5825 5823 5821 5819 5818 5816 5815 5814
5864 5863 5863 5863 5862 5862 5861 5860 5859 5857 5856 5855 5854 5852 5850 5849 5847 5845 5843 5841 5839 5837 5834 5832 5830 5828 5825 5823 5821 5818 5816 5814 5812 5810 5808 5807 5806 5805
5859 5859 5859 5858 5858 5857 5856 5855 5854 5852 5851 5850 5848 5847 5845 5843 5841 5839 5837 5834 5832 5830 5827 5825 5822 5820 5817 5814 5812 5809 5807 5805 5802 5800 5798 5797 5795 5794
5855 5854 5854 5853 5852 5852 5851 5849 5848 5847 5845 5844 5842 5840 5838 5836 5833 5831 5829 5827 5825 5822 5819 5817 5813 5811 5808 5805 5802 5799 5796 5794 5792 5790 5787 5785 5784 5782
5849 5849 5848 5848 5847 5846 5844 5843 5842 5840 5838 5837 5835 5832 5830 5828 5825 5823 5820 5818 5815 5812 5810 5807 5804 5801 5798 5794 5792 5788 5785 5783 5780 5778 5775 5773 5771 5770
5844 5843 5842 5841 5840 5839 5838 5837 5835 5833 5831 5829 5827 5825 5822 5819 5816 5814 5811 5809 5806 5802 5798 5796 5793 5790 5787 5783 5780 5777 5774 5771 5768 5765 5763 5760 5758 5756
5837 5837 5836 5835 5833 5832 5831 5829 5828 5826 5823 5821 5819 5816 5813 5810 5807 5804 5801 5798 5796 5792 5788 5784 5782 5778 5775 5772 5768 5764 5761 5758 5755 5752 5749 5746 5744 5741
5830 5830 5829 5828 5826 5824 5823 5822 5820 5817 5815 5813 5810 5807 5804 5801 5797 5794 5790 5787 5784 5781 5777 5772 5769 5765 5763 5760 5755 5751 5748 5744 5741 5738 5734 5731 5729 5726
5823 5822 5821 5819 5818 5816 5815 5813 5811 5808 5806 5803 5800 5798 5794 5791 5787 5783 5779 5775 5771 5768 5764 5759 5755 5751 5748 5746 5742 5738 5733 5730 5726 5722 5719 5716 5713 5711
5815 5814 5812 5811 5809 5808 5806 5803 5801 5798 5796 5793 5790 5787 5783 5779 5775 5771 5767 5763 5759 5755 5750 5745 5741 5736 5732 5730 5727 5723 5718 5714 5710 5707 5704 5701 5698 5696
5807 5805 5804 5802 5800 5798 5796 5793 5791 5788 5785 5782 5778 5775 5771 5767 5762 5758 5754 5750 5745 5741 5737 5732 5727 5722 5717 5714 5711 5707 5703 5699 5695 5692 5689 5686 5683 5681
5798 5796 5795 5793 5791 5788 5786 5783 5780 5777 5773 5770 5766 5762 5758 5754 5749 5745 5740 5736 5732 5728 5723 5717 5712 5708 5703 5699 5695 5691 5687 5684 5680 5677 5674 5671 5669 5666
5789 5787 5785 5783 5780 5777 5775 5772 5768 5765 5761 5757 5753 5749 5745 5740 5736 5731 5726 5721 5717 5713 5709 5704 5698 5693 5688 5684 5680 5676 5672 5669 5666 5662 5659 5657 5654 5651
5780 5778 5775 5772 5770 5767 5763 5760 5756 5752 5748 5744 5740 5736 5731 5726 5722 5717 5712 5707 5702 5698 5693 5689 5684 5679 5675 5671 5666 5661 5658 5654 5651 5648 5644 5641 5640 5637
5770 5768 5765 5762 5758 5755 5751 5747 5743 5739 5735 5730 5726 5722 5717 5712 5707 5703 5698 5693 5688 5683 5679 5674 5669 5664 5661 5658 5654 5647 5643 5639 5636 5633 5630 5627 5624 5622
5759 5757 5753 5750 5747 5743 5739 5735 5730 5726 5722 5717 5713 5708 5703 5698 5693 5688 5683 5678 5673 5669 5664 5660 5655 5649 5645 5642 5639 5635 5629 5624 5621 5619 5616 5612 5610 5607
5748 5745 5741 5738 5734 5730 5726 5721 5717 5713 5708 5704 5699 5694 5689 5684 5679 5674 5669 5664 5659 5654 5650 5645 5640 5635 5631 5627 5624 5621 5617 5611 5607 5604 5601 5598 5596 5594
5736 5733 5729 5725 5721 5717 5713 5708 5704 5699 5695 5690 5685 5680 5675 5669 5664 5659 5654 5649 5644 5639 5635 5630 5626 5621 5617 5614 5611 5608 5604 5600 5595 5591 5587 5584 5582 5580
5724 5720 5716 5712 5707 5703 5699 5695 5690 5686 5680 5676 5671 5665 5660 5655 5650 5645 5640 5635 5629 5625 5620 5616 5612 5608 5604 5601 5597 5594 5591 5588 5584 5581 5578 5573 5570 5568